Regional Weather Roundup
Issued by NWS Newport/Morehead, NC

Current Version | Previous Version | Graphics & Text | Print | Product List | Glossary On
Versions: 1 2 3 4 5 6 7 8 9 10 11 12 13 14 15 16 17 18 19 20 21 22 23 24 25 26 27 28 29 30 31 32 33 34 35 36 37 38 39 40 41 42 43 44 45 46 47 48 49 50
000 ASUS42 KMHX 262322 RWRMHX WEATHER ROUNDUP FOR EASTERN NORTH CAROLINA NATIONAL WEATHER SERVICE NEWPORT/MOREHEAD CITY NC 600 PM EST FRI DEC 26 2014 NOTE: "FAIR" INDICATES FEW OR NO CLOUDS BELOW 12,000 FEET WITH NO SIGNIFICANT WEATHER AND/OR OBSTRUCTIONS TO VISIBILITY NCZ015>017-031-032-045>047-102-103-270000- NORTH COAST CITY SKY/WX TMP DP RH WIND PRES REMARKS EDENTON N/A 42 38 86 CALM 30.31R ELIZABETH CITY CLEAR 51 35 54 SW5 30.30R KITTY HAWK CLEAR 48 39 70 W3 30.29R MANTEO CLEAR 43 37 81 CALM 30.31R $$ NCZ045>047-081-094-103-104-270000- CENTRAL COAST CITY SKY/WX TMP DP RH WIND PRES REMARKS FRISCO CLEAR 43 39 86 W5 30.31R SWANQUARTER N/A 48 N/A N/A SW2 30.27S $$ NCZ095-097-098-100-101-270000- SOUTHERN COAST CITY SKY/WX TMP DP RH WIND PRES REMARKS BEAUFORT CLEAR 47 40 76 CALM 30.31R CEDAR ISLAND N/A 48 N/A N/A VRB1 30.36R JACKSONVILLE CLEAR 49 42 77 CALM 30.29S PINEY ISLAND CLEAR 52 41 66 NE6 30.30R WILMINGTON CLEAR 50 44 80 CALM 30.30R $$ NCZ011>013-027>030-043-044-078>080-089-090>093-098-270000- COASTAL PLAIN CITY SKY/WX TMP DP RH WIND PRES REMARKS AHOSKIE CLEAR 41 37 86 CALM 30.31R CLINTON CLEAR 46 40 82 CALM 30.31S ELIZABETHTOWN CLEAR 47 40 77 CALM 30.30R GOLDSBORO CLEAR 48 43 85 SE2 30.28S GREENVILLE CLEAR 45 37 76 CALM 30.31S HAVELOCK CLEAR 47 41 80 SE3 30.31S KENANSVILLE CLEAR 42 39 89 CALM 30.31S KINSTON CLEAR 43 39 87 CALM 30.31S NEW BERN CLEAR 46 39 76 CALM 30.31S RICHLANDS CLEAR 45 37 76 CALM 30.31S ROCKY MOUNT CLEAR 44 37 76 CALM 30.29F WASHINGTON CLEAR 45 38 77 CALM 30.31F WHITEVILLE CLEAR 48 41 76 CALM 30.30R $$ AMZ130-135-150-152-154-156-158-170-250-252-270-ANZ085-086-088-633-658-670-270000- MARINE OBSERVATIONS STATION/POSITION TIME TEMP WIND PRES WAVE SWELL AIR SEA DIR/SP/G HT/PER HT/PER (UTC) (F) (DEG/KT/KT) (MB) (FT/S) (FT/S) CHESAPEAKE LIGHT 2300 48 90/ 4/ 5 1026.6 64 E VA BEACH 2300 50 52 10/ 4/ 4 1025.4 2/ 7 2/ 7 DUCK 2300 51 51 260/ 5/ 7 1025.2 2 E DUCK 2300 50 N/A 2/13 2/13 10 NE DUCK 2300 51 N/A 2/13 2/13 OREGON INLET 2300 48 53 CALM / 1 1026.1 13E OREGON INLT 2300 51 N/A 2/ 8 2/13 HATTERAS CG 2300 280/ 7/ 8 N/A DIAMOND BUOY 2300 54 1026.4 3/ 8 17 S OCRACOKE NOT AVBL CAPE LOOKOUT 2300 56 20/ 5/ 5 1026.0 BEAUFORT LAB 2300 52 55 360/ 1/ 2 1025.0 30 SE NEW RIVER 2300 57 61 30/ 4/ 6 1026.6 2/ 7 2/ 7 5 SE WRIGHTSVLE NOT AVBL 225 S CAPE HAT 2249 67 74 40/ 6/ 10 1025.7 3/ 9 3/ 9 41 SE CHARLESTON 2300 62 72 30/ 12/ 16 1024.9 3/ 4 2/ 7 $$

USA.gov is the U.S. government's official web portal to all federal, state and local government web resources and services.